Regional Weather Roundup
Issued by NWS

Home | Current Version | Previous Version | Graphics & Text | Print | Product List | Glossary On
Versions: 1 2 3 4 5 6 7 8 9 10 11 12 13 14 15 16 17 18 19 20 21 22 23 24 25 26 27 28 29 30 31 32 33 34 35 36 37 38 39 40 41 42 43 44 45 46 47 48 49 50
000
ASUS43 KIND 242259
RWRIN

WEATHER ROUNDUP FOR INDIANA
NATIONAL WEATHER SERVICE INDIANAPOLIS IN
700 PM EDT SAT SEP 24 2016

NOTE: "FAIR" INDICATES FEW OR NO CLOUDS BELOW 12,000 FEET WITH NO
SIGNIFICANT WEATHER AND/OR OBSTRUCTIONS TO VISIBILITY.

* - STATION DOES NOT REPORT WEATHER SUCH AS PRECIPITATION OR FOG.

+ - STATION NOT QUALITY CONTROLLED BY THE NATIONAL WEATHER SERVICE.
    USE DATA WITH CAUTION...ESPECIALLY DEWPOINT AND RELATIVE
    HUMIDITY OBSERVATIONS.

INZ001>003-010>013-019-020-250000-
NORTHWEST INDIANA

CITY           SKY/WX    TMP DP  RH WIND       PRES   REMARKS
GARY /AIRPORT/ PTCLDY    73  66  78 NE8       30.13F

$$

LMZ046-743>745-250000-
SOUTHERN LAKE MICHIGAN

STATION/POSITION TIME  TEMP    WIND        PRES    WAVE
                       AIR SEA DIR/SP/G            HT
                 (UTC) (F)     (DEG/KT/KT) (MB)    (FT)
BURNS HARBOR     2209   70      70/ 10     1020.7S
MICHIGAN CITY    2200   68      20/  8/  9   N/A
5NW MICH CITY    2200   71 71   40/ 12/ 16   N/A     2

$$

INZ004-005-014>016-021>024-250000-
NORTH CENTRAL INDIANA

CITY           SKY/WX    TMP DP  RH WIND       PRES   REMARKS
GOSHEN         CLEAR     73  58  59 E7        30.15S
SOUTH BEND     CLEAR     73  60  63 E8        30.15S

$$

INZ006>009-017-018-025>027-250000-
NORTHEAST INDIANA

CITY           SKY/WX    TMP DP  RH WIND       PRES   REMARKS
ANGOLA *+      CLEAR     72  63  73 E3        30.18R
FORT WAYNE     CLEAR     73  59  61 E8        30.16R
KENDALLVILLE + CLEAR     72  57  59 E5        30.17S

$$

INZ028-029-035-036-043>045-051>053-250000-
WEST CENTRAL INDIANA

CITY           SKY/WX    TMP DP  RH WIND       PRES   REMARKS
CRAWFORDSVL +  CLEAR     78  67  66 E3        30.10F
GREENCASTLE +  CLEAR     79  70  73 E5        30.11R
LAFAYETTE      CLEAR     76  67  73 E12       30.10S
TERRE HAUTE    CLEAR     81  68  64 E7        30.08R

$$

INZ030>032-037>040-046>048-054>057-064-065-250000-
CENTRAL INDIANA

CITY           SKY/WX    TMP DP  RH WIND       PRES   REMARKS
COLUMBUS       PTCLDY    81  68  65 CALM      30.09S
INDIANAPOLIS   PTCLDY    79  67  66 NE10      30.10S
-EAGLE CREEK   CLEAR     79  67  66 NE8       30.11R
MT COMFORT *+  CLEAR     75  66  73 E6        30.13S
SHELBYVILLE    MOCLDY    81  65  58 NE9       30.10S

$$

INZ033-034-041-042-049-050-058-059-250000-
EAST CENTRAL INDIANA

CITY           SKY/WX    TMP DP  RH WIND       PRES   REMARKS
MUNCIE         CLEAR     76  65  68 NE6       30.14S

$$

INZ060-061-067>069-081>083-085>088-250000-
SOUTHWEST INDIANA

CITY           SKY/WX    TMP DP  RH WIND       PRES   REMARKS
EVANSVILLE     CLEAR     88  64  44 CALM      30.05S
HUNTINGBURG *+   N/A     82  64  54 E5        30.06F

$$

INZ062-063-066-070>080-084-089>092-250000-
SOUTH CENTRAL AND SOUTHEAST INDIANA

CITY           SKY/WX    TMP DP  RH WIND       PRES   REMARKS
BLOOMINGTON    CLEAR     82  68  62 NE3       30.09S
MADISON *+     CLEAR     81  66  61 NE6       30.11S
SEYMOUR +      CLEAR     84  64  51 CALM      30.08S

$$




USA.gov is the U.S. government's official web portal to all federal, state and local government web resources and services.